Flag for British Virgin Islands Weather past 2 weeks in Road Town, Tortola, British Virgin Islands

78 °F

Passing clouds.

Feels Like: 81 °F
Forecast: 80 / 84 °F
Wind: 6 mph from East

Location: Cyril E. King International Airport

Current Time: Dec 2, 2015 at 1:47:22 AM

Latest Report: Dec 2, 2015 at 12:53 AM

Visibility: 10 mi

Pressure: 30.00 "Hg

Humidity: 100%

Dew point: 78 °F

Location of Road TownLocation

Historic Weather in Road Town — Graph


Road Town temperature yesterday

Maximum temperature yesterday: 85 °F (at 12:02 PM)
Minimum temperature yesterday: 75 °F (at 7:19 PM)
Average temperature yesterday: 80 °F

Past Weeks' High & Low Weather Summary

High87 °F (Nov 17, 12:53 PM)100% (Nov 28, 4:44 AM)30.04 "Hg (Nov 28, 4:44 AM)
Low73 °F (Nov 22, 12:53 AM)48% (Nov 20, 10:53 AM)29.85 "Hg (Nov 20, 2:53 PM)
Average80 °F81%29.93 "Hg
* Reported Nov 16 11:53 PM — Dec 1 11:18 PM, Road Town, Weather by CustomWeather, © 2015

Note: Actual official high and low records may vary slightly from our data, if they occured in-between our weather recording intervals... More about our weather records


Road Town weather history for previous 24 hours

Time TempWeatherWind HumidityBarometerVisibility
11:18 PM
Tue, Dec 1
76 °FLight rain. Overcast.5 mph100%30.02 "Hg7 mi
10:53 PM75 °FRain. Mostly cloudy.3 mphN/A30.03 "Hg6 mi
10:31 PM75 °FHeavy rain. Overcast.7 mphN/A30.03 "Hg4 mi
10:12 PM75 °FHeavy rain. Overcast.9 mphN/A30.04 "Hg2 mi
9:53 PM75 °FLight rain. Mostly cloudy.7 mphN/A30.03 "Hg9 mi
8:24 PM75 °FRain. Mostly cloudy.5 mphN/A30.02 "Hg3 mi
8:17 PM75 °FHeavy rain. Mostly cloudy.3 mphN/A30.02 "Hg2 mi
7:19 PM75 °FLight rain. Overcast.12 mphN/A30.01 "Hg5 mi
7:05 PM76 °FHeavy rain. Fog.12 mph97%30.00 "Hg2 mi
5:53 PM76 °FLight rain. Mostly cloudy.14 mph97%29.97 "Hg7 mi
5:32 PM79 °FLight rain. Partly sunny.22 mph89%29.96 "Hg7 mi
4:53 PM81 °FOvercast.17 mph82%29.93 "Hg10 mi
4:44 PM82 °FOvercast.14 mph79%29.93 "Hg10 mi
4:33 PM83 °FCloudy.20 mph79%29.93 "Hg10 mi
3:53 PM84 °FScattered clouds.15 mph77%29.92 "Hg10 mi
3:41 PM84 °FBroken clouds.12 mph77%29.92 "Hg10 mi
2:53 PM85 °FScattered clouds.14 mph77%29.92 "Hg10 mi
2:17 PM85 °FScattered clouds.14 mph77%29.92 "Hg10 mi
1:53 PM85 °FScattered clouds.14 mph77%29.93 "Hg10 mi
1:09 PM84 °FBroken clouds.14 mph80%29.95 "Hg10 mi
1:00 PM85 °FBroken clouds.17 mph77%29.95 "Hg10 mi
12:09 PM85 °FScattered clouds.14 mph77%29.96 "Hg10 mi
12:02 PM85 °FBroken clouds.16 mph77%29.97 "Hg10 mi
11:53 AM84 °FScattered clouds.14 mph80%29.97 "Hg10 mi
10:53 AM83 °FBroken clouds.16 mph82%29.97 "Hg10 mi
10:23 AM83 °FBroken clouds.16 mph82%29.98 "Hg10 mi
9:53 AM84 °FScattered clouds.17 mph77%29.98 "Hg10 mi
8:53 AM82 °FPassing clouds.16 mph82%29.97 "Hg10 mi
6:53 AM78 °FSunny.8 mph90%29.95 "Hg10 mi
5:53 AM77 °FClear.7 mph94%29.93 "Hg10 mi
4:53 AM77 °FClear.3 mph94%29.90 "Hg10 mi
3:53 AM77 °FClear.7 mph94%29.90 "Hg10 mi
2:53 AM77 °FClear.6 mph94%29.91 "Hg10 mi
1:53 AM78 °FPassing clouds.7 mph93%29.93 "Hg10 mi
Weather by CustomWeather, © 2015

See weather overviewHow to use our weather pages